www.pogodaiklimat.ru

Погода и климат >> Архив погоды >> Оман >> Marmul


ПОГОДА в Marmul

  • Прогноз погоды в Marmul
  • Монитор погоды в Marmul
  • Климат города

АРХИВ ПОГОДЫ в Marmul

Время (UTC), дата Ветер
(напр.,м/с)
 
Видим.   Явления Облачность Т
(С)
Тd
(С)
f
(%)
Тe
(С)
Тes
(С)
Комфортность P
(гПа)
Po
(гПа)
Тmin
(С)
Tmax
(С)
R
(мм)
R24
(мм)
S
(см)
21 12.09 ЮВ 5 н/о н/о +23.7 +22.0 90 +31 +31 очень
душно
1007.5 977.1
00 13.09 Ю 5 н/о н/о +23.4 +22.0 92 +32 +32 очень
душно
1007.2 976.8
03 13.09 Ю 3 н/о н/о +23.7 +21.4 87 +30 +30 очень
душно
1008.3 977.9
06 13.09 ЮВ 4 н/о н/о +29.5 +19.9 56 +36 +36 очень
душно
1008.8 978.9 +23.0
09 13.09 ЮВ 5 н/о н/о +33.4 +14.2 31 +35 +35 душно 1005.6 976.2
18 13.09 ЮВ 8 н/о н/о +24.8 +22.6 88 +33 +33 очень
душно
1007.3 977.1 +34.5
21 13.09 ЮЗ 1 4900 м 1/1 <50 м
[]
-90.2
00 14.09 Ю 4 н/о н/о +23.5 +22.1 92 +30 +30 очень
душно
1005.7 975.4
09 14.09 ЮВ 4 н/о н/о +34.6 +17.4 36 +38 +38 очень
душно
1005.1 975.8
12 14.09 ЮВ 8 н/о н/о +33.6 +18.7 41 +38 +38 очень
душно
1003.2 973.9
15 14.09 ЮВ 8 н/о н/о +26.1 +23.2 84 +35 +35 очень
душно
1005.0 974.9
18 14.09 ЮВ 7 н/о н/о +24.3 +23.3 94 +33 +33 очень
душно
1007.2 977.0 +35.9
21 14.09 ЮВ 4 н/о н/о +23.0 +22.9 99 +32 +32 очень
душно
1006.2 975.9
03 15.09 Ю 3 н/о н/о +22.0 +22.0 100 +29 +29 очень
душно
1007.3 976.7
09 15.09 ЮВ 4 н/о н/о +34.8 +17.4 36 +38 +38 очень
душно
1004.6 975.3
21 15.09 ЮВ 7 н/о н/о +24.7 +21.6 83 +32 +32 очень
душно
1005.6 975.4
00 16.09 ЮЗ 1 н/о н/о +22.7 +21.9 95 +30 +30 очень
душно
1005.8 975.4
03 17.09 СВ 2 н/о н/о +21.2 +18.3 84 +25 +25 комфорт 1008.0 977.4
06 17.09 В 1 н/о н/о +30.7 +17.6 46 +35 +35 очень
душно
1007.9 978.2 +20.3
09 17.09 ЮВ 2 н/о н/о +39.9 +2.8 10 +36 +36 очень
жарко
1004.7 975.8
12 17.09 ЮВ 6 н/о н/о +38.3 +6.3 14 +36 +36 очень
жарко
1003.5 974.5
15 17.09 ЮВ 6 н/о н/о +31.1 +19.2 49 +37 +37 очень
душно
1004.9 975.3
18 17.09 Ю 3 н/о н/о +27.3 +20.3 66 +34 +34 очень
душно
1007.0 977.0 +40.4
21 17.09 ЮВ 4 н/о н/о +24.5 +20.2 77 +30 +30 очень
душно
1006.8 976.5
00 18.09 ЮВ 2 н/о н/о +23.7 +17.7 69 +28 +28 душно 1006.4 976.0
03 18.09 ЮЗ 4 н/о н/о +22.1 +8.7 42 +23 +23 комфорт 1007.7 977.0
06 18.09 ЮЗ 2 н/о н/о +34.1 +0.1 11 +31 +31 жарко 1007.6 978.0 +21.1
09 18.09 ЮЗ 1 н/о н/о +41.6 -4.5 5 +37 +37 очень
жарко
1004.5 975.7
12 18.09 Ю 4 н/о н/о +41.2 -1.4 7 +37 +37 очень
жарко
1003.1 974.3
15 18.09 Ю 5 н/о н/о +36.9 +4.8 14 +34 +34 очень
жарко
1004.9 975.8
18 18.09 Ю 3 н/о н/о +32.0 -1.6 11 +28 +28 жарко 1006.5 976.8 +43.4
21 18.09 ЮЗ 3 н/о н/о +28.3 +1.0 17 +26 +26 жарко 1006.1 976.1
00 19.09 З 4 н/о н/о +24.8 +17.0 62 +29 +29 душно 1005.7 975.4
03 19.09 Ю 1 н/о н/о +24.3 +13.3 50 +26 +26 жарко 1007.2 976.8
06 19.09 З 2 н/о н/о +32.0 +13.5 33 +33 +33 жарко 1007.4 977.8 +24.1
09 19.09 Ю 3 н/о н/о +41.1 +5.4 11 +38 +38 очень
жарко
1004.1 975.3
12 19.09 ЮВ 8 н/о н/о +38.2 +11.7 20 +37 +37 очень
жарко
1002.6 973.6

 

Местоположение метеостанции Marmul (Оман): широта 18.13 долгота 55.17 высота над уровнем моря 269 м.

В архиве по умолчанию представлена погода в Marmul за последнюю неделю. Архивные данные за месяц целиком и за предыдущие месяцы, начиная с января 2011 года, Вы можете получить, выбрав интересующий диапазон дат из раскрывающегося списка и нажав кнопку "Ввод!".

Внимание! Время в таблицах - всемирное. Для получения местного времени необходимо прибавить поправку, которая в Marmul равна 4 ч.

Смотрите также архив погоды в соседних городах и на ближайших метеорологических станциях:

Погода в Thumrait (Оман) (132 км)
Погода в Qaroon Hairitti (Оман) (151 км)
Погода в Salalah (Оман) (168 км)
Погода в Mina Salalah (Оман) (191 км)
Погода в Yaaloni (Оман) (286 км)
Погода в Duqm (Оман) (307 км)
Погода в Umzamaim (Оман) (361 км)
Погода в Qarn Alam (Оман) (411 км)
Погода в Joba (Оман) (442 км)
Погода в Masirah (Оман) (483 км)

Пояснения к столбцам:

Ветер - указаны скорость ветра в м/с - средняя за 10 мин, порывы в срок и между сроками (в фигурных скобках) и направление, откуда дует ветер: С - северный, СВ - северо-восточный, В - восточный, ЮВ - юго-восточный, Ю - южный, ЮЗ - юго-западный, З - западный, СЗ - северо-западный.
Видимость - горизонтальная дальность видимости в метрах или километрах. При видимости от 1 до 10 км при отсутствии осадков обычно наблюдается дымка, при ухудшении видимости до 1 км и менее - туман. В сухую погоду видимость может ухудшаться дымом, пылью или мглою.
Явления - указаны атмосферные явления, наблюдавшиеся в срок или в последний час перед сроком; фигурными скобками обозначены явления, наблюдавшиеся между сроками (за 1-3 часа до срока); квадратными скобками обозначены град или гололедные отложения с указанием их диаметра в мм.
Облачность - указаны через наклонную черту общая и нижняя облачность в баллах и высота нижней границы облаков в метрах; квадратными скобками обозначены формы облаков: Ci - перистые, Cs - перисто-слоистые, Cc - перисто-кучевые, Ac - высококучевые, As - высокослоистые, Sc - слоисто-кучевые, Ns - слоисто-дождевые, Cu - кучевые, Cb - кучево-дождевые. Подробнее классификацию облаков см. в Атласе облаков (PDF).
T - Температура воздуха - температура, измеренная на высоте 2 м над землей.
Td - Температура точки росы - температура, при понижении до которой содержащийся в воздухе водяной пар достигнет насыщения.
f - Относительная влажность воздуха - влажноcть воздуха, измеренная на высоте 2 м над землей.
Te - Эффективная температура - температура, которую ощущает одетый по сезону человек в тени. Характеристика душности погоды. При расчете учитывается влияние влажности воздуха и скорости ветра на теплоощущения человека.
Tes - Эффективная температура на солнце - температура, которую ощущает человек, с поправкой на солнечный нагрев. Характеристика знойности погоды. Зависит от высоты солнца над горизонтом, облачности и скорости ветра. Ночью, в пасмурную погоду, а также при ветре 12 м/с и более поправка равна нулю.
P - Атмосферное давление - приведенное к уровню моря атмосферное давление.
Po - Атмосферное давление - измеренное на уровне метеостанции атмосферное давление.
Tmin - Минимальная температура - минимум температуры воздуха на высоте 2 м над землей.
Tmax - Максимальная температура - максимум температуры воздуха на высоте 2 м над землей.
R - Количество осадков - Количество выпавших осадков за период времени, мм. При наведении курсора мыши на число - период времени, за который выпало указанное количество осадков.
R24 - Количество осадков - Количество выпавших осадков за 24 часа, мм.
S - Снежный покров - Высота снежного покрова, см. При наведении курсора мыши на число - состояние снежного покрова и степень покрытия местности в баллах.